Zurück zum Katalog

STARLINK-1216

AktivKommunikationVLEO
NORAD 45185·PAYLOAD·🇺🇸 United States

Gestartet Feb 17, 2020 von Cape Canaveral Space Force Station

Loading…

Nächste Überflüge (nächste 24 Stunden)

TLE

AktuellSource: CelesTrak SupGP

Epoche: Sep 14, 2026, 13:45 UTC

1 45185C 20012H   26257.57340278 -.00019753  00000+0 -41129-3 0  2579
2 45185  53.1530 233.2176 0002964  44.8134  18.7096 15.45022408    14

Verfolge STARLINK-1216 in Echtzeit mit AllMySat

Download on the App Store